Regional Weather Roundup
Issued by NWS Upton, NY

Current Version | Previous Version | Graphics & Text | Print | Product List | Glossary Off
Versions: 1 2 3 4 5 6 7 8 9 10 11 12 13 14 15 16 17 18 19 20 21 22 23 24 25 26 27 28 29 30 31 32 33 34 35 36 37 38 39 40 41 42 43 44 45 46 47 48 49 50

000
ASUS41 KOKX 280409
RWROKX

REGIONAL WEATHER ROUNDUP
NATIONAL WEATHER SERVICE NEW YORK NY
1200 AM EDT WED JUN 28 2017

NOTE: "FAIR" INDICATES FEW OR NO CLOUDS BELOW 12,000 FEET WITH NO
SIGNIFICANT WEATHER AND/OR OBSTRUCTIONS TO VISIBILITY.

NYZ071-072-176-178-NJZ106-104-280500-
NEW YORK CITY METRO AREA

CITY           SKY/WX    TMP DP  RH WIND       PRES   REMARKS
Central Park   CLEAR     66  51  58 NW3       30.04R
Bronx Bot Gard   N/A     63  48  59 CALM      30.03R
LaGuardia APRT PTCLDY    69  53  56 N3        30.00R
Kennedy INTL   PTCLDY    71  51  49 NW7       30.01R
Breezy Point     N/A     66 N/A N/A W6          N/A
Newark/Liberty PTCLDY    66  52  60 W6        30.02R
Teterboro      CLEAR     65  51  60 W5        30.00R
$$

NYZ177-179-078>081-280500-
LONG ISLAND NEW YORK

CITY           SKY/WX    TMP DP  RH WIND       PRES   REMARKS
Jones Beach      N/A     68 N/A N/A W5          N/A
Matinecock PT  NOT AVBL
Farmingdale    NOT AVBL
MacArthur/ISP  PTCLDY    64  54  69 N5        30.01R
Shirley        PTCLDY    62  57  83 CALM      30.01R
Mt Sinai Harb    N/A    N/A N/A N/A CALM        N/A
Westhampton    MOCLDY    55  51  86 CALM      30.03R
East Hampton   FAIR      59  55  85 CALM      30.00R
Montauk          N/A     67  53  61 NW6       30.01R
$$

NYZ052-065-067-280500-
HUDSON VALLEY

CITY           SKY/WX    TMP DP  RH WIND       PRES   REMARKS
White Plains   CLEAR     61  51  70 CALM      30.01R
Larchmont Harb   N/A     63 N/A N/A N1          N/A
Croton O-T Hud   N/A     61 N/A N/A CALM        N/A
Newburgh       CLEAR     55  52  88 W5        30.03R
Montgomery     CLEAR     53  50  89 CALM      30.01R FOG
Poughkeepsie   CLEAR     54  52  93 CALM      30.00R
Albany         MOCLDY    55  51  86 CALM      30.00R
$$

NJZ001-105-106-008-010-013-015-019>022-104-280500-
NEW JERSEY

CITY           SKY/WX    TMP DP  RH WIND       PRES   REMARKS
Newark/Liberty PTCLDY    66  52  60 W6        30.02R
Teterboro      CLEAR     65  51  60 W5        30.00R
Caldwell       CLEAR     62  53  72 CALM      30.03R
Somerville     CLEAR     58  56  93 NW3       30.02R
Linden         FAIR      65  51  60 CALM      30.01R
Perth Amboy      N/A     66 N/A N/A W10         N/A
Sussex         CLEAR     54  53  97 CALM      30.04R
Andover          N/A     55  53  93 CALM      30.04R
Trenton        PTCLDY    65  49  56 W3        30.03R
Millville      CLOUDY    61  57  87 NW5       30.06R
Atlantic City  CLEAR     64  53  67 NW6       30.04R
Wrightstown    CLEAR     65  50  57 W5        30.02R
Toms River     PTCLDY    58  52  80 W3        30.04R
Belmar         MOCLDY    65  56  72 SW6       30.04R
$$

PAZ047>061-062-071-280500-
EASTERN PENNSYLVANIA

CITY           SKY/WX    TMP DP  RH WIND       PRES   REMARKS
Philadelphia   PTCLDY    69  47  45 NW13      30.06R
Allentown      CLEAR     62  47  57 W3        30.05R
Scranton       CLOUDY    60  50  69 SW5       30.05R
$$

CTZ002-004>006-009-010-012-RIZ004-006-007-MAZ004-011-015-280500-
SOUTHERN NEW ENGLAND
 IN CT

CITY           SKY/WX    TMP DP  RH WIND       PRES   REMARKS
Bradley INTL   PTCLDY    53  51  93 NW5       30.00R
Hartford       CLEAR     58  57  97 SE3       30.00R
Danbury        CLEAR     53  51  93 SW5       30.03R
Wtrbury/Oxford CLEAR     54  45  71 CALM      30.02R
Bridgeport     CLEAR     65  51  60 CALM      30.01R
Meriden        CLEAR     53  52  96 CALM      30.01R
New Haven      CLEAR     60  50  69 N3        30.01R
Chester        FAIR      61  48  63 CALM      30.01R
Groton         CLOUDY    62  55  77 CALM      30.00R
Wilimantic     PTCLDY    55  54  96 NE3       30.01R

 IN RI

CITY           SKY/WX    TMP DP  RH WIND       PRES   REMARKS
Providence     CLOUDY    62  56  80 W7        30.00R
Block Island   CLOUDY    63  58  83 NW3       30.00R
Westerly       MOCLDY    63  55  75 CALM      30.00R
 IN MA

CITY           SKY/WX    TMP DP  RH WIND       PRES   REMARKS
Boston         MOCLDY    63  56  78 SE3       29.98R
Worcester      CLEAR     53  49  86 W10       30.00R
Westfield      CLEAR     52  51  97 CALM        N/A
Provincetown   MOCLDY    60  54  80 N6        29.98S
Nantucket      MOCLDY    63  63 100 SW5       29.98R
$$

ANZ330-335-338-340-345-350-353-355-280500-
COASTAL MARINE OBSERVATIONS


STATION/POSITION TIME  SKY/WX   TEMP    WIND        PRES    VSBY  WAVE
                                AIR SEA DIR/SP/G                  HT/PER
                 (UTC)          (F)     (DEG/KT/KT) (MB)    (MI)  (FT/S)
NY HARB ENTRANCE 0250            68 69  230/  4/  6 1015.3          1/ 7
20 S FIRE ISLAND 0350            70 70  280/  8/ 10 1015.4          2/ 6
GREAT SOUTH BAY  0315            71 76  260/  8/  8   N/A
23 SSW MONTAUK P 0250            67 65              1015.3          2/ 4
15 E BARNEGAT LI 0330               66                N/A           2/ 4
HUDSON CANYON    0250            70 68  240/  8/ 10 1015.0          2/ 4
KINGS POINT      0336            67 65   60/  3/  4 1015.8
EXECUTION ROCKS  0345            65        CALM       N/A
CENTRAL LI SOUND NOT AVBL
EASTERN LI SOUND NOT AVBL
ROBBINS REEF     0336                   290/  4/  5 1016.6
$$


>>>>>>>>>>>>>>>>>>>>>>>>>>>> KEY <<<<<<<<<<<<<<<<<<<<<<<<<<<
>                                                          <
>     SKY/WX - Sky Condition/Present Weather               <
>     TMP    - Temperature in Fahrenheit                   <
>     DP     - Dew Point in Fahrenheit                     <
>     RH     - Relative Humidity in Percent                <
>     WIND   - Direction (from) and Speed in MPH           <
>     PRES   - Mean Sea Level Pressure (inches of Hg)      <
>     WCI    - Wind Chill Index                            <
>     VSB    - VISIBILITY IN MILES                         <
>     HX     - HEAT INDEX                                  <
>     TC     - TEMPERATURE IN CELSIUS                      <
>     VRB    - VARIABLE WIND DIRECTION                     <
>                                                          <
>>>>>>>>>>>>>>>>>>>>>>>>>>>> KEY <<<<<<<<<<<<<<<<<<<<<<<<<<<



USA.gov is the U.S. government's official web portal to all federal, state and local government web resources and services.